CAPE
981 200 498 1125 1391 1190 1367 1223 1326 1815 1264 1495 1493 1626 1519 1214 1561 1775 1834 1441 1741 1801
1049 281 398 708 1119 1202 1127 1262 1128 2085 1397 1700 1851 1729 1660 1379 1224 1699 1805 2037 1511 1937
361 1021 441 504 764 1307 542 1226 1386 1999 1763 2108 1581 1473 1823 1212 1429 1342 1360 1163 1638 1443
24 772 898 539 303 1079 981 1365 2061 1938 2208 2389 2232 1653 1751 1309 1549 1436 1342 1308 1694 1999
146 250 628 755 260 511 920 912 1954 2003 2060 1837 1689 2102 2206 1637 1575 1882 1561 1566 1895 1979
869 106 405 303 610 312 1517 707 1123 1770 1895 1868 1869 1674 1845 2140 1668 1631 1806 1599 1793 2016
996 966 204 186 53 1059 944 2042 1778 1873 1726 1960 1590 1599 1758 1889 2039 2048 1958 2147 2084 2204
1169 1093 1184 658 408 16 1246 926 1588 1838 2056 1997 1975 1780 1585 1693 2061 2157 2209 2108 2038 2340
1446 1318 1261 1298 1013 748 337 1647 1071 1107 1694 2035 2094 2070 1871 1572 1614 2417 2222 2262 2336 2333
1647 1545 1399 1383 1279 1175 932 546 1722 1787 1806 1816 2048 2116 2134 1933 1454 1182 2000 2266 2181 2258
1609 1571 1570 1483 1473 1280 1291 971 989 1252 1761 1986 1993 2280 2204 2063 1717 1426 1203 1946 2293 2143
1535 1590 1605 1496 1499 1562 1487 1591 1318 1616 1847 2046 2124 2359 2427 2246 1769 1334 1339 1340 1432 1714
1399 1618 1478 1612 1468 1663 1576 1378 1745 1564 1804 2093 2133 2312 2546 2458 2155 1734 1290 1124 1383 1810
1505 1542 1588 1565 1633 1543 1653 1534 1406 1784 1774 2005 2308 2373 2509 2681 2518 1963 1433 1229 1066 1221
CIN
-71 -168 -125 -59 -21 -44 -57 -37 -51 -43 -27 -55 -58 -47 -42 -59 -57 -33 -32 -45 -62 -53
-85 -154 -152 -69 -51 -30 -29 -17 -89 -42 -35 -86 -47 -46 -51 -46 -74 -38 -36 -28 -66 -63
-204 -82 -148 -102 -94 -26 -50 -37 -74 -59 -81 -67 -67 -57 -38 -49 -66 -51 -65 -29 -54 -69
-369 -112 -83 -116 -164 -58 -49 -66 -61 -71 -31 -29 -37 -78 -59 -44 -58 -28 -52 -67 -44 -30
-269 -254 -137 -111 -209 -193 -61 -87 -44 -52 -50 -42 -38 -19 -10 -18 -23 -20 -17 -48 -30 -22
-123 -364 -235 -245 -158 -196 -69 -63 -90 -26 -19 -24 -41 -62 -37 -17 -29 -29 -20 -31 -60 -36
-128 -153 -347 -323 -392 -92 -117 -35 -47 -45 -22 -48 -58 -59 -50 -36 -32 -26 -28 -25 -14 -37
-94 -84 -77 -165 -248 -79 -76 -116 -35 -39 -40 -23 -46 -50 -72 -68 -44 -35 -22 -27 -34 -16
-77 -82 -83 -77 -130 -165 -295 -54 -120 -103 -57 -40 -38 -39 -53 -63 -70 -23 -39 -36 -36 -31
-107 -96 -100 -77 -79 -113 -142 -222 -41 -52 -58 -58 -47 -40 -39 -47 -61 -102 -69 -42 -50 -36
-152 -134 -98 -80 -66 -86 -99 -145 -152 -116 -64 -50 -59 -38 -40 -40 -35 -60 -107 -77 -47 -59
-172 -154 -136 -113 -100 -67 -69 -73 -108 -73 -60 -42 -52 -52 -43 -31 -35 -57 -104 -116 -105 -90
-145 -173 -172 -164 -139 -100 -83 -110 -67 -88 -59 -49 -55 -50 -46 -45 -40 -42 -68 -124 -116 -97
-107 -192 -181 -168 -149 -126 -107 -103 -99 -63 -55 -33 -33 -52 -49 -38 -37 -62 -86 -89 -123 -189
Wind_Speed
10 12 12 10 9 5 3 4 3 2 4 4 5 6 6 5 6 4 3 6 3 5
13 11 13 12 13 11 8 7 5 5 6 5 5 6 6 5 6 5 4 3 4 3
11 13 17 16 14 14 12 12 9 8 7 6 5 6 4 4 5 6 5 2 2 3
nan 11 16 14 15 17 16 17 15 11 10 8 8 7 2 2 5 8 7 3 1 3
14 12 11 16 16 16 16 18 18 12 10 8 8 7 7 4 3 6 8 7 4 3
13 12 11 10 18 14 15 14 16 16 15 14 10 9 8 7 5 5 7 8 6 4
13 13 13 13 nan 17 12 16 18 18 16 15 13 11 10 10 8 8 9 7 6 5
18 19 20 15 15 nan 15 11 15 19 19 17 14 12 12 12 11 11 9 7 7 6
15 19 17 18 18 16 15 17 14 11 14 17 13 12 14 13 13 14 13 8 5 7
9 14 18 20 20 17 13 16 17 15 14 12 13 13 13 14 12 13 12 10 6 7
8 8 16 19 16 16 17 15 16 14 13 14 13 14 12 13 12 12 10 11 8 8
12 9 9 11 12 15 18 17 15 16 14 13 13 15 14 17 14 10 8 10 9 9
9 11 7 11 11 15 15 16 22 17 15 15 14 18 16 18 13 9 10 13 13 12
9 10 11 13 14 13 14 18 18 19 18 17 17 16 19 20 12 9 14 14 14 13
Wind_Direction
211 203 191 193 201 239 194 144 190 281 294 325 335 2 14 32 45 47 71 94 109 117
210 221 211 194 200 207 220 207 234 295 309 322 323 351 17 49 49 53 61 82 103 123
224 213 227 211 202 213 212 229 245 284 296 298 313 328 355 39 42 25 40 48 112 144
nan 224 228 232 219 218 217 235 252 249 256 275 301 316 301 8 27 10 21 21 263 145
233 226 221 224 236 234 227 228 247 268 269 264 269 285 284 316 341 344 4 10 349 200
236 248 233 232 229 245 245 247 245 251 261 277 276 278 281 278 306 325 335 344 340 333
242 243 246 240 nan 235 252 250 253 255 260 259 266 278 282 275 292 312 314 315 317 320
238 228 233 237 239 nan 242 259 258 257 261 268 273 273 279 278 303 316 314 296 287 285
255 247 239 238 244 245 246 248 264 280 275 273 268 285 299 293 296 312 326 313 255 259
283 253 247 243 246 253 257 253 257 267 275 278 273 289 305 314 301 316 314 306 271 244
320 292 248 243 248 253 255 256 256 260 269 269 265 282 297 307 305 315 316 292 284 273
337 319 265 254 250 243 250 255 258 256 259 272 270 287 289 279 270 302 292 275 275 277
311 313 305 256 259 248 248 248 246 250 256 261 262 272 297 290 263 274 262 259 249 280
292 301 305 267 254 261 255 250 248 247 248 254 261 269 290 299 267 270 260 260 247 257